Location: Arrington
(35.8681°N, 86.7092°W)
Time: 16:40:39
(UTC+00:00)

ATLAS 2AS CENTAUR R/B - Pass Details

Date: 01 March 2020
Orbit: 929 x 1283 km, 63.7° (Epoch: 03 April)

Event Time Altitude Azimuth Distance (km) Brightness Sun altitude
Rises 03:17:54 0° 247° (WSW) 4,191 6.2 -43.5°
Reaches altitude 10° 03:21:08 10° 258° (WSW) 3,253 5.6 -44.1°
Maximum altitude 03:27:51 29° 316° (NW) 2,153 4.5 -45.3°
Enters shadow 03:30:42 24° 348° (NNW) 2,391 4.7 -45.8°
